• In Österreich
  • Länderverzeichnis
  • Für 7 Tage
  • Wassertemperatur
  • Satellitenkarten
  • Wetterkarte
  • News
  • Widgets
  • user-avatar
    Anmelden

    Stündliche Wetter Poplyahny

    Heute, 26 September, Mittwoch

    Zeit Temperatur Niederschläge Wind Luftdruck Luftfeuchtigkeit
    00:00 +2°C° 0 mm 3 m/S 758 mmHg 79%
    01:00 +2°C° 0 mm 3 m/S 759 mmHg 81%
    02:00 +3°C° 0 mm 2 m/S 759 mmHg 87%
    03:00 +3°C° 0 mm 2 m/S 759 mmHg 87%
    04:00 +2°C° 0 mm 3 m/S 759 mmHg 88%
    05:00 +2°C° 0 mm 3 m/S 759 mmHg 88%
    06:00 +3°C° 0 mm 3 m/S 759 mmHg 84%
    07:00 +4°C° 0 mm 3 m/S 759 mmHg 81%
    08:00 +5°C° 0 mm 4 m/S 759 mmHg 75%
    09:00 +6°C° 0 mm 5 m/S 758 mmHg 69%
    10:00 +8°C° 0 mm 5 m/S 758 mmHg 62%
    11:00 +10°C° 0 mm 6 m/S 757 mmHg 55%
    12:00 +10°C° 0 mm 6 m/S 756 mmHg 57%
    13:00 +10°C° 0 mm 6 m/S 756 mmHg 59%
    14:00 +10°C° 0 mm 6 m/S 755 mmHg 61%
    15:00 +9°C° 1.3 mm 6 m/S 754 mmHg 70%
    16:00 +8°C° 1.3 mm 7 m/S 753 mmHg 79%
    17:00 +6°C° 1.3 mm 7 m/S 752 mmHg 88%
    18:00 +6°C° 1.6 mm 8 m/S 750 mmHg 88%
    19:00 +6°C° 1.6 mm 8 m/S 749 mmHg 88%
    20:00 +5°C° 1.6 mm 8 m/S 747 mmHg 88%
    21:00 +6°C° 0.9 mm 8 m/S 746 mmHg 88%
    22:00 +6°C° 0.9 mm 8 m/S 745 mmHg 88%
    23:00 +6°C° 0.9 mm 8 m/S 744 mmHg 88%

    Morgen, 27 September, Donnerstag

    Zeit Temperatur Niederschläge Wind Luftdruck Luftfeuchtigkeit
    00:00 +7°C° 0.9 mm 8 m/S 744 mmHg 89%
    01:00 +8°C° 0.9 mm 7 m/S 743 mmHg 90%
    02:00 +9°C° 0.9 mm 6 m/S 743 mmHg 91%
    03:00 +8°C° 0.3 mm 6 m/S 743 mmHg 90%
    04:00 +8°C° 0.3 mm 5 m/S 743 mmHg 88%
    05:00 +7°C° 0.3 mm 4 m/S 744 mmHg 87%
    06:00 +7°C° 0 mm 5 m/S 744 mmHg 84%
    07:00 +7°C° 0 mm 5 m/S 744 mmHg 81%
    08:00 +7°C° 0 mm 5 m/S 745 mmHg 79%
    09:00 +8°C° 0 mm 6 m/S 745 mmHg 71%
    10:00 +9°C° 0 mm 7 m/S 746 mmHg 64%
    11:00 +10°C° 0 mm 7 m/S 746 mmHg 57%
    12:00 +11°C° 0.1 mm 7 m/S 746 mmHg 55%
    13:00 +11°C° 0.1 mm 7 m/S 747 mmHg 53%
    14:00 +12°C° 0.1 mm 7 m/S 747 mmHg 51%
    15:00 +11°C° 0 mm 6 m/S 747 mmHg 55%
    16:00 +10°C° 0 mm 5 m/S 748 mmHg 58%
    17:00 +10°C° 0 mm 4 m/S 748 mmHg 62%
    18:00 +8°C° 0 mm 4 m/S 748 mmHg 64%
    19:00 +8°C° 0 mm 4 m/S 749 mmHg 66%
    20:00 +7°C° 0 mm 4 m/S 749 mmHg 69%
    21:00 +7°C° 0 mm 4 m/S 749 mmHg 69%
    22:00 +8°C° 0 mm 3 m/S 748 mmHg 69%
    23:00 +8°C° 0 mm 3 m/S 748 mmHg 70%

    übermorgen, 28 September, Freitag

    Zeit Temperatur Niederschläge Wind Luftdruck Luftfeuchtigkeit
    00:00 +7°C° 0.3 mm 4 m/S 747 mmHg 76%
    01:00 +8°C° 0.3 mm 5 m/S 745 mmHg 81%
    02:00 +8°C° 0.3 mm 6 m/S 744 mmHg 87%
    03:00 +10°C° 1.7 mm 6 m/S 743 mmHg 89%
    04:00 +11°C° 1.7 mm 6 m/S 741 mmHg 91%
    05:00 +13°C° 1.7 mm 6 m/S 740 mmHg 92%
    06:00 +13°C° 2 mm 6 m/S 740 mmHg 91%
    07:00 +12°C° 2 mm 7 m/S 739 mmHg 90%
    08:00 +12°C° 2 mm 7 m/S 739 mmHg 89%
    09:00 +12°C° 0.7 mm 7 m/S 739 mmHg 85%
    10:00 +11°C° 0.7 mm 7 m/S 739 mmHg 80%
    11:00 +11°C° 0.7 mm 7 m/S 739 mmHg 76%
    12:00 +10°C° 0.2 mm 7 m/S 741 mmHg 77%
    13:00 +9°C° 0.2 mm 7 m/S 742 mmHg 77%
    14:00 +6°C° 0.2 mm 7 m/S 743 mmHg 78%
    15:00 +7°C° 0 mm 6 m/S 745 mmHg 77%
    16:00 +7°C° 0 mm 5 m/S 746 mmHg 76%
    17:00 +7°C° 0 mm 3 m/S 748 mmHg 76%
    18:00 +5°C° 0 mm 3 m/S 749 mmHg 78%
    19:00 +4°C° 0 mm 3 m/S 749 mmHg 81%
    20:00 +4°C° 0 mm 2 m/S 750 mmHg 83%
    21:00 +4°C° 0 mm 2 m/S 751 mmHg 85%
    22:00 +4°C° 0 mm 2 m/S 751 mmHg 86%
    23:00 +3°C° 0 mm 2 m/S 751 mmHg 87%

    29 September, Samstag

    Zeit Temperatur Niederschläge Wind Luftdruck Luftfeuchtigkeit
    00:00 +4°C° 0 mm 1 m/S 752 mmHg 88%
    01:00 +4°C° 0 mm 1 m/S 752 mmHg 88%
    02:00 +4°C° 0 mm 1 m/S 753 mmHg 89%
    03:00 +4°C° 0 mm 1 m/S 753 mmHg 89%
    04:00 +4°C° 0 mm 1 m/S 754 mmHg 88%
    05:00 +4°C° 0 mm 1 m/S 754 mmHg 88%
    06:00 +5°C° 0 mm 1 m/S 755 mmHg 85%
    07:00 +5°C° 0 mm 1 m/S 755 mmHg 81%
    08:00 +5°C° 0 mm 0 m/S 756 mmHg 77%
    09:00 +7°C° 0 mm 1 m/S 756 mmHg 69%
    10:00 +9°C° 0 mm 1 m/S 756 mmHg 61%
    11:00 +9°C° 0 mm 2 m/S 757 mmHg 53%
    12:00 +9°C° 0 mm 2 m/S 757 mmHg 52%
    13:00 +10°C° 0 mm 2 m/S 757 mmHg 50%
    14:00 +10°C° 0 mm 2 m/S 757 mmHg 48%
    15:00 +9°C° 0 mm 2 m/S 758 mmHg 54%
    16:00 +9°C° 0 mm 1 m/S 758 mmHg 60%
    17:00 +8°C° 0 mm 1 m/S 758 mmHg 66%
    18:00 +7°C° 0 mm 1 m/S 758 mmHg 69%
    19:00 +6°C° 0 mm 1 m/S 759 mmHg 72%
    20:00 +5°C° 0 mm 1 m/S 759 mmHg 75%
    21:00 +5°C° 0 mm 1 m/S 759 mmHg 77%
    22:00 +4°C° 0 mm 1 m/S 759 mmHg 79%
    23:00 +3°C° 0 mm 2 m/S 760 mmHg 81%

    30 September, Sonntag

    Zeit Temperatur Niederschläge Wind Luftdruck Luftfeuchtigkeit
    00:00 +3°C° 0 mm 2 m/S 760 mmHg 83%
    01:00 +3°C° 0 mm 2 m/S 760 mmHg 85%
    02:00 +3°C° 0 mm 2 m/S 760 mmHg 87%
    03:00 +2°C° 0 mm 2 m/S 759 mmHg 89%
    04:00 +2°C° 0 mm 2 m/S 759 mmHg 90%
    05:00 +2°C° 0 mm 2 m/S 759 mmHg 92%
    06:00 +2°C° 0 mm 3 m/S 759 mmHg 87%
    07:00 +3°C° 0 mm 3 m/S 759 mmHg 82%
    08:00 +4°C° 0 mm 4 m/S 759 mmHg 77%
    09:00 +6°C° 0 mm 4 m/S 758 mmHg 72%
    10:00 +7°C° 0 mm 5 m/S 758 mmHg 68%
    11:00 +9°C° 0 mm 5 m/S 758 mmHg 63%
    12:00 +9°C° 0 mm 5 m/S 757 mmHg 64%
    13:00 +9°C° 0 mm 5 m/S 757 mmHg 65%
    14:00 +9°C° 0 mm 5 m/S 757 mmHg 67%
    15:00 +9°C° 0 mm 5 m/S 757 mmHg 68%
    16:00 +8°C° 0 mm 5 m/S 756 mmHg 69%
    17:00 +8°C° 0 mm 5 m/S 756 mmHg 70%
    18:00 +8°C° 0 mm 4 m/S 756 mmHg 72%
    19:00 +8°C° 0 mm 4 m/S 756 mmHg 73%
    20:00 +8°C° 0 mm 4 m/S 756 mmHg 75%
    21:00 +7°C° 0 mm 4 m/S 756 mmHg 76%
    22:00 +7°C° 0 mm 4 m/S 756 mmHg 78%
    23:00 +7°C° 0 mm 4 m/S 756 mmHg 79%

    1 Oktober, Montag

    Zeit Temperatur Niederschläge Wind Luftdruck Luftfeuchtigkeit
    00:00 +7°C° 0 mm 4 m/S 756 mmHg 78%
    01:00 +7°C° 0 mm 4 m/S 756 mmHg 77%
    02:00 +7°C° 0 mm 4 m/S 756 mmHg 76%
    03:00 +7°C° 0 mm 4 m/S 756 mmHg 76%
    04:00 +6°C° 0 mm 4 m/S 755 mmHg 76%
    05:00 +6°C° 0 mm 4 m/S 755 mmHg 77%
    06:00 +6°C° 0 mm 4 m/S 755 mmHg 75%
    07:00 +6°C° 0 mm 4 m/S 755 mmHg 74%
    08:00 +6°C° 0 mm 4 m/S 755 mmHg 72%
    09:00 +8°C° 0 mm 4 m/S 755 mmHg 67%
    10:00 +10°C° 0 mm 4 m/S 755 mmHg 63%
    11:00 +11°C° 0 mm 4 m/S 756 mmHg 58%
    12:00 +12°C° 0 mm 4 m/S 755 mmHg 56%
    13:00 +13°C° 0 mm 4 m/S 755 mmHg 53%
    14:00 +13°C° 0 mm 4 m/S 755 mmHg 51%
    15:00 +12°C° 0 mm 3 m/S 755 mmHg 56%
    16:00 +11°C° 0 mm 3 m/S 755 mmHg 62%
    17:00 +10°C° 0 mm 2 m/S 754 mmHg 67%
    18:00 +9°C° 0 mm 2 m/S 755 mmHg 71%
    19:00 +8°C° 0 mm 2 m/S 755 mmHg 75%
    20:00 +7°C° 0 mm 2 m/S 755 mmHg 79%
    21:00 +6°C° 0 mm 2 m/S 755 mmHg 81%
    22:00 +6°C° 0 mm 2 m/S 755 mmHg 83%
    23:00 +5°C° 0 mm 2 m/S 755 mmHg 84%
    Mehr zeigen